Export;EXP-2023-01 (20230705 19:48);;;StationsCode;NL49007;NL49012;NL49014;NL49551;NL49553;NL49561
Periode;20220101 00:00 - 20230101 00:00;;;BeheerderMeetStation;GGD A'dam;GGD A'dam;GGD A'dam;GGD A'dam;GGD A'dam;GGD A'dam
Bron;https://data.rivm.nl/data/luchtmeetnet;;;StationsNaam;Amsterdam-Einsteinweg;Amsterdam-Van Diemenstraat;Amsterdam-Vondelpark;IJmuiden-Kanaaldijk;Wijk aan Zee-Burgemeester Rothestraat;Badhoevedorp-Sloterweg
Beschrijving data;https://data.rivm.nl/data/luchtmeetnet/readme.pdf;;;Latitude,Longitude;(52.381331,4.845233);(52.389983,4.887811);(52.359714,4.866208);(52.463039,4.601842);(52.493992,4.601986);(52.334003,4.774006)
Accreditatienummer;https://www.rva.nl/alle-geaccrediteerden/;;;StationsGebied;stad;stad;stad;stad;stad;stad
;;;;StationsType;verkeer;verkeer;achtergrond;industrie;industrie;achtergrond
;;;;Meetprincipe;Infrarood gasfiltercorrelatie (IR-GFC);Infrarood gasfiltercorrelatie (IR-GFC);Infrarood gasfiltercorrelatie (IR-GFC);Infrarood gasfiltercorrelatie (IR-GFC);Infrarood gasfiltercorrelatie (IR-GFC);Infrarood gasfiltercorrelatie (IR-GFC)
;;;;Meetopstelling;Teledyne API T300 gas filter correlation CO analyser;Teledyne API T300 gas filter correlation CO analyser;Teledyne API T300 gas filter correlation CO analyser;Teledyne API T300 gas filter correlation CO analyser;Teledyne API T300 gas filter correlation CO analyser;Teledyne API T300 gas filter correlation CO analyser
;;;;Accreditatienummer;L426;L426;L426;L426;L426;L426
Component;Bep.periode;Eenheid; Begindatumtijd;Einddatumtijd;NL49007;NL49012;NL49014;NL49551;NL49553;NL49561
CO;uur;�g/m�;20220101 00:00;20220101 01:00;286.7;273.2;335;320.8;155.4;262.5
CO;uur;�g/m�;20220101 01:00;20220101 02:00;355.1;344.3;352.9;212.1;178.2;375.8
CO;uur;�g/m�;20220101 02:00;20220101 03:00;398.6;360.3;353.8;191.3;158;384
CO;uur;�g/m�;20220101 03:00;20220101 04:00;381.6;363.3;354.9;169.5;150.6;361.8
CO;uur;�g/m�;20220101 04:00;20220101 05:00;322.4;310.9;339.1;179.9;174.6;297
CO;uur;�g/m�;20220101 05:00;20220101 06:00;324.9;289.6;316.2;211;181.4;326.9
CO;uur;�g/m�;20220101 06:00;20220101 07:00;343.2;315.7;326.1;222.6;196.5;360.1
CO;uur;�g/m�;20220101 07:00;20220101 08:00;345.1;291.7;317.6;222.1;274.4;353.3
CO;uur;�g/m�;20220101 08:00;20220101 09:00;318.4;300;321.1;206.4;257.5;316.4
CO;uur;�g/m�;20220101 09:00;20220101 10:00;303.3;289.5;307.4;200;295.2;332.4
CO;uur;�g/m�;20220101 10:00;20220101 11:00;384.7;373.9;383.8;249;634.6;435.7
CO;uur;�g/m�;20220101 11:00;20220101 12:00;349.3;304;318.4;256.4;1205.6;378.5
CO;uur;�g/m�;20220101 12:00;20220101 13:00;364.9;348.9;328;253.8;1111.5;374.3
CO;uur;�g/m�;20220101 13:00;20220101 14:00;363.9;349.2;335.3;251.3;1171.2;365.2
CO;uur;�g/m�;20220101 14:00;20220101 15:00;358.5;332.9;317.3;246.2;1298.5;343
CO;uur;�g/m�;20220101 15:00;20220101 16:00;381.2;376.1;311.5;240.4;1201.6;347.9
CO;uur;�g/m�;20220101 16:00;20220101 17:00;355.6;348.5;304.7;237.2;1636;345
CO;uur;�g/m�;20220101 17:00;20220101 18:00;350.9;343.1;303.1;229.6;1435.8;343.9
CO;uur;�g/m�;20220101 18:00;20220101 19:00;327.1;294.7;299.2;222.8;956.9;348.1
CO;uur;�g/m�;20220101 19:00;20220101 20:00;316.6;319.5;304.7;226.3;964.6;307.8
CO;uur;�g/m�;20220101 20:00;20220101 21:00;324.3;337.4;303.8;229.3;1102.4;296.8
CO;uur;�g/m�;20220101 21:00;20220101 22:00;310.5;319.7;301.7;218.3;589.6;309.2
CO;uur;�g/m�;20220101 22:00;20220101 23:00;321.1;326;309.4;202.3;426.1;301.8
CO;uur;�g/m�;20220101 23:00;20220102 00:00;308.6;294.3;304.7;206.6;292.4;297.6
CO;uur;�g/m�;20220102 00:00;20220102 01:00;315;296.7;304.7;205.2;305.4;301.9
CO;uur;�g/m�;20220102 01:00;20220102 02:00;311.6;291.4;308.8;208;635.2;296.8
CO;uur;�g/m�;20220102 02:00;20220102 03:00;292.5;275.3;300.6;208.5;1077.8;283.5
CO;uur;�g/m�;20220102 03:00;20220102 04:00;277.2;273.7;290.6;197.7;406.7;274
CO;uur;�g/m�;20220102 04:00;20220102 05:00;266.6;246.8;277.8;196.9;224;263.2
CO;uur;�g/m�;20220102 05:00;20220102 06:00;259.3;235.8;276;185.7;305.1;261.4
CO;uur;�g/m�;20220102 06:00;20220102 07:00;266.8;248.1;281.2;195.7;826.7;270.6
CO;uur;�g/m�;20220102 07:00;20220102 08:00;269.4;246.1;278.8;191.8;839.8;297.9
CO;uur;�g/m�;20220102 08:00;20220102 09:00;294.6;270.3;289.2;209.3;241.4;303.8
CO;uur;�g/m�;20220102 09:00;20220102 10:00;284.3;270.9;288.9;215.7;227.7;278.4
CO;uur;�g/m�;20220102 10:00;20220102 11:00;291.2;289;303.4;227.8;218.8;295.2
CO;uur;�g/m�;20220102 11:00;20220102 12:00;281.4;259.7;292.2;228;216;267
CO;uur;�g/m�;20220102 12:00;20220102 13:00;275.5;250.8;274.9;202.9;179.3;243.8
CO;uur;�g/m�;20220102 13:00;20220102 14:00;267.6;253.3;270.2;198;170.8;236.5
CO;uur;�g/m�;20220102 14:00;20220102 15:00;259.3;276.2;265.9;198.2;175.5;229
CO;uur;�g/m�;20220102 15:00;20220102 16:00;261.6;264.7;261.5;187.8;171.9;230.5
CO;uur;�g/m�;20220102 16:00;20220102 17:00;301.8;288.5;280.6;189.8;181.5;237.9
CO;uur;�g/m�;20220102 17:00;20220102 18:00;300;325.6;313.3;188.1;193;244.8
CO;uur;�g/m�;20220102 18:00;20220102 19:00;311.5;309.1;286.9;182.8;263.8;247
CO;uur;�g/m�;20220102 19:00;20220102 20:00;288.1;301.5;286.4;188.3;221.8;256.2
CO;uur;�g/m�;20220102 20:00;20220102 21:00;269.5;252.1;285.5;201.1;195.8;242.8
CO;uur;�g/m�;20220102 21:00;20220102 22:00;250.5;234.9;268.5;190.1;182.7;228.1
CO;uur;�g/m�;20220102 22:00;20220102 23:00;249.4;222.1;264.3;192.1;183.7;227.2
CO;uur;�g/m�;20220102 23:00;20220103 00:00;246.1;227.9;262.7;189.8;179.9;230.9
CO;uur;�g/m�;20220103 00:00;20220103 01:00;243.9;224.3;249.6;191.2;182.5;226.1
CO;uur;�g/m�;20220103 01:00;20220103 02:00;243.2;222.7;249.6;187.2;181.9;224.8
CO;uur;�g/m�;20220103 02:00;20220103 03:00;237.8;219.8;241.6;186.3;178.7;221.7
CO;uur;�g/m�;20220103 03:00;20220103 04:00;234.5;215.3;244.8;187.2;176;221.9
CO;uur;�g/m�;20220103 04:00;20220103 05:00;237.8;212.3;247.2;181.7;175.2;218.9
CO;uur;�g/m�;20220103 05:00;20220103 06:00;239.4;215.8;246.2;185.8;176.2;219.4
CO;uur;�g/m�;20220103 06:00;20220103 07:00;242.6;229.3;250.8;187;176.6;226.3
CO;uur;�g/m�;20220103 07:00;20220103 08:00;244.6;248.3;262.2;185;175.5;238.8
CO;uur;�g/m�;20220103 08:00;20220103 09:00;256.6;260.7;265.1;183.3;179.1;236
CO;uur;�g/m�;20220103 09:00;20220103 10:00;254.3;248.3;259.5;188.9;177.3;233.1
CO;uur;�g/m�;20220103 10:00;20220103 11:00;256.8;257;258.6;188;183.2;230
CO;uur;�g/m�;20220103 11:00;20220103 12:00;253.4;248.2;265;188.8;173.1;229.7
CO;uur;�g/m�;20220103 12:00;20220103 13:00;254.7;251.3;270;198.7;183.4;239.3
CO;uur;�g/m�;20220103 13:00;20220103 14:00;264.3;258.6;256.4;201;187.3;234
CO;uur;�g/m�;20220103 14:00;20220103 15:00;255.3;260.6;254.4;170.5;176.3;246.7
CO;uur;�g/m�;20220103 15:00;20220103 16:00;288.8;299;281.4;167.5;178.6;249.4
CO;uur;�g/m�;20220103 16:00;20220103 17:00;280.8;288.8;282.6;171.5;178.5;242.2
CO;uur;�g/m�;20220103 17:00;20220103 18:00;284.3;295.7;275.9;175.9;179;246.7
CO;uur;�g/m�;20220103 18:00;20220103 19:00;279.2;305;279.2;164.9;185.2;249.3
CO;uur;�g/m�;20220103 19:00;20220103 20:00;264;261;290.2;168.2;182.5;244.8
CO;uur;�g/m�;20220103 20:00;20220103 21:00;265.8;290.5;292.5;162.5;180.8;247.6
CO;uur;�g/m�;20220103 21:00;20220103 22:00;279.1;318.7;342.3;162.4;184.6;251.8
CO;uur;�g/m�;20220103 22:00;20220103 23:00;270.4;297.2;308.5;159.1;183.6;262.9
CO;uur;�g/m�;20220103 23:00;20220104 00:00;268.1;286.2;271.5;166.4;181.1;252.8
CO;uur;�g/m�;20220104 00:00;20220104 01:00;262.3;268.7;275.8;163.9;185;247.4
CO;uur;�g/m�;20220104 01:00;20220104 02:00;272.2;268.5;284.9;183.6;198.6;259
CO;uur;�g/m�;20220104 02:00;20220104 03:00;269.7;257.6;284.8;194.5;217.1;259.5
CO;uur;�g/m�;20220104 03:00;20220104 04:00;273.8;253.5;279.9;195.5;225.8;253.8
CO;uur;�g/m�;20220104 04:00;20220104 05:00;272.5;256.4;280.7;193.6;223.6;253
CO;uur;�g/m�;20220104 05:00;20220104 06:00;272.1;285.5;282.8;202.3;232.1;265.8
CO;uur;�g/m�;20220104 06:00;20220104 07:00;294.2;323;293.4;205.3;220.7;271.8
CO;uur;�g/m�;20220104 07:00;20220104 08:00;323.2;309.4;312.3;219.3;206.8;301.8
CO;uur;�g/m�;20220104 08:00;20220104 09:00;349.6;337.9;332.5;211.5;216.3;294.4
CO;uur;�g/m�;20220104 09:00;20220104 10:00;336.5;320.4;327;202.3;204.5;306.5
CO;uur;�g/m�;20220104 10:00;20220104 11:00;;292.8;316.2;616.5;201.5;285.1
CO;uur;�g/m�;20220104 11:00;20220104 12:00;290.9;253.3;289.7;466.5;157.5;298.5
CO;uur;�g/m�;20220104 12:00;20220104 13:00;314.7;244.8;308.3;844;159.4;296.1
CO;uur;�g/m�;20220104 13:00;20220104 14:00;313.7;257.2;288.7;776;156.1;273.2
CO;uur;�g/m�;20220104 14:00;20220104 15:00;309.7;241.2;290.5;564.8;157.6;275
CO;uur;�g/m�;20220104 15:00;20220104 16:00;294.8;257.1;295.5;237.8;160.4;283.1
CO;uur;�g/m�;20220104 16:00;20220104 17:00;279.1;269;307.6;207.8;171.2;293.4
CO;uur;�g/m�;20220104 17:00;20220104 18:00;392.7;360.8;322.6;224.5;171.6;424.2
CO;uur;�g/m�;20220104 18:00;20220104 19:00;349;322.1;359.2;249.3;169.9;309.5
CO;uur;�g/m�;20220104 19:00;20220104 20:00;275.7;242.2;306.3;205.7;171.6;248.2
CO;uur;�g/m�;20220104 20:00;20220104 21:00;339.8;300.5;315.5;202.5;175.2;306.5
CO;uur;�g/m�;20220104 21:00;20220104 22:00;352.2;343.4;347.9;208.8;177.2;297.5
CO;uur;�g/m�;20220104 22:00;20220104 23:00;259.4;310;260.4;201;179.9;250.3
CO;uur;�g/m�;20220104 23:00;20220105 00:00;257.8;241.3;256.3;203.5;182.3;242.6
CO;uur;�g/m�;20220105 00:00;20220105 01:00;258.3;233.5;241.3;201.3;183.7;240.3
CO;uur;�g/m�;20220105 01:00;20220105 02:00;248;225.9;236.8;204.1;184.1;232.3
CO;uur;�g/m�;20220105 02:00;20220105 03:00;266.6;227.7;239;209.6;194.9;237.9
CO;uur;�g/m�;20220105 03:00;20220105 04:00;263.3;228;242.8;210.6;193.6;238
CO;uur;�g/m�;20220105 04:00;20220105 05:00;253.8;227.4;244.5;201.7;187.9;237.5
CO;uur;�g/m�;20220105 05:00;20220105 06:00;267.7;228.5;244.6;202.5;176.1;247.3
CO;uur;�g/m�;20220105 06:00;20220105 07:00;273.5;237.1;259.7;205.6;181.3;247.1
CO;uur;�g/m�;20220105 07:00;20220105 08:00;283.3;248.8;266.3;201.1;184.8;247.4
CO;uur;�g/m�;20220105 08:00;20220105 09:00;278.7;240.4;283.3;202;186;243.2
CO;uur;�g/m�;20220105 09:00;20220105 10:00;270.2;236.8;269.2;198.8;179.2;256.2
CO;uur;�g/m�;20220105 10:00;20220105 11:00;267.3;292.5;250.1;204.1;180.1;251.8
CO;uur;�g/m�;20220105 11:00;20220105 12:00;273.1;299;255.3;201.8;180.8;252.1
CO;uur;�g/m�;20220105 12:00;20220105 13:00;386.3;238.2;266.2;200.6;181.8;250.7
CO;uur;�g/m�;20220105 13:00;20220105 14:00;353.2;233.1;319.5;209.2;178.4;253.8
CO;uur;�g/m�;20220105 14:00;20220105 15:00;277.8;230.8;306.6;204;173.7;254.1
CO;uur;�g/m�;20220105 15:00;20220105 16:00;276.6;240.6;285.7;207.1;170.1;282.7
CO;uur;�g/m�;20220105 16:00;20220105 17:00;286.9;248.7;299.6;361.3;174.4;308.1
CO;uur;�g/m�;20220105 17:00;20220105 18:00;295.6;239.3;284.5;312.5;171.2;306.5
CO;uur;�g/m�;20220105 18:00;20220105 19:00;283.5;239.3;285.7;255.1;182.1;362.5
CO;uur;�g/m�;20220105 19:00;20220105 20:00;256.8;219.6;282.7;322.2;167.6;295.6
CO;uur;�g/m�;20220105 20:00;20220105 21:00;233;214.5;253.1;412.7;164.1;272.4
CO;uur;�g/m�;20220105 21:00;20220105 22:00;227.9;213.6;252.1;318.8;165.3;246.9
CO;uur;�g/m�;20220105 22:00;20220105 23:00;235.7;214.7;232;304.5;165.9;300.9
CO;uur;�g/m�;20220105 23:00;20220106 00:00;223.3;200;207.7;410.3;161.3;260.2
CO;uur;�g/m�;20220106 00:00;20220106 01:00;220.9;193.2;199.1;610.1;164.5;305.2
CO;uur;�g/m�;20220106 01:00;20220106 02:00;225.1;202.5;202;630.9;167.9;268.8
CO;uur;�g/m�;20220106 02:00;20220106 03:00;216.5;199.6;197.8;544;169.4;231.5
CO;uur;�g/m�;20220106 03:00;20220106 04:00;221;196.5;208.8;925.4;163.4;240.4
CO;uur;�g/m�;20220106 04:00;20220106 05:00;232.6;212;204.3;473.2;163.5;234.6
CO;uur;�g/m�;20220106 05:00;20220106 06:00;374.1;268.8;218.5;218.3;167.3;384.4
CO;uur;�g/m�;20220106 06:00;20220106 07:00;477.7;401.5;229.7;461.3;162.5;654.2
CO;uur;�g/m�;20220106 07:00;20220106 08:00;570.4;583.8;287.4;202.6;165;612.6
CO;uur;�g/m�;20220106 08:00;20220106 09:00;822.8;789;329.5;231.2;174.6;793.6
CO;uur;�g/m�;20220106 09:00;20220106 10:00;910.1;963;471.6;376.5;178.9;781.3
CO;uur;�g/m�;20220106 10:00;20220106 11:00;759.7;744.6;450.4;362.6;214.5;617.7
CO;uur;�g/m�;20220106 11:00;20220106 12:00;525.6;541.8;410.7;248.6;179.9;357.9
CO;uur;�g/m�;20220106 12:00;20220106 13:00;324.4;323.8;244.4;212.4;230.5;252.1
CO;uur;�g/m�;20220106 13:00;20220106 14:00;343.5;354;237;210.3;202.5;329.4
CO;uur;�g/m�;20220106 14:00;20220106 15:00;346.6;393.6;247.3;214.1;179.4;319.7
CO;uur;�g/m�;20220106 15:00;20220106 16:00;360.2;405.1;247.8;205.4;195.5;345.3
CO;uur;�g/m�;20220106 16:00;20220106 17:00;395.9;348.4;235.1;211.6;181.2;326.6
CO;uur;�g/m�;20220106 17:00;20220106 18:00;422.3;420.5;263.4;229.6;215.5;368.4
CO;uur;�g/m�;20220106 18:00;20220106 19:00;459.6;433.2;320.2;305;347.1;410.6
CO;uur;�g/m�;20220106 19:00;20220106 20:00;366.5;359.7;283.7;292.4;1253;366
CO;uur;�g/m�;20220106 20:00;20220106 21:00;357.2;340.1;287.1;271.1;865.9;373.4
CO;uur;�g/m�;20220106 21:00;20220106 22:00;326.4;314.5;263.7;271.5;1450;361.9
CO;uur;�g/m�;20220106 22:00;20220106 23:00;315.4;325.4;257.4;246.5;1467.9;336.4
CO;uur;�g/m�;20220106 23:00;20220107 00:00;301.7;311;242.8;235.8;598.2;296.9
CO;uur;�g/m�;20220107 00:00;20220107 01:00;275.9;265.9;239.4;222;885.7;293.7
CO;uur;�g/m�;20220107 01:00;20220107 02:00;294.5;270.5;250.6;221.6;1351.1;295.5
CO;uur;�g/m�;20220107 02:00;20220107 03:00;275.9;252;229.4;222.9;986.8;280.2
CO;uur;�g/m�;20220107 03:00;20220107 04:00;282.5;258.3;252.5;226.9;943.7;295.6
CO;uur;�g/m�;20220107 04:00;20220107 05:00;284.6;264.7;286.6;225.7;598.3;284
CO;uur;�g/m�;20220107 05:00;20220107 06:00;288.2;273.4;285.3;226.4;834;290
CO;uur;�g/m�;20220107 06:00;20220107 07:00;298;281.5;280;228.2;277.3;299.2
CO;uur;�g/m�;20220107 07:00;20220107 08:00;324.6;299.3;281.7;204.9;178;324.9
CO;uur;�g/m�;20220107 08:00;20220107 09:00;352.4;325.7;290;208;174.8;352.4
CO;uur;�g/m�;20220107 09:00;20220107 10:00;330.3;300;296.1;212.2;178.7;335.4
CO;uur;�g/m�;20220107 10:00;20220107 11:00;328.4;322;265;208.9;187.2;303.4
CO;uur;�g/m�;20220107 11:00;20220107 12:00;360.2;350.4;283.4;208.6;183.5;307.7
CO;uur;�g/m�;20220107 12:00;20220107 13:00;277.9;310;323.3;204.5;191.8;304
CO;uur;�g/m�;20220107 13:00;20220107 14:00;271.2;268.5;274.5;214.8;177.1;251.4
CO;uur;�g/m�;20220107 14:00;20220107 15:00;275.7;289.7;282;210.7;175.4;256.9
CO;uur;�g/m�;20220107 15:00;20220107 16:00;270;293.3;281.5;206.5;181.1;250.1
CO;uur;�g/m�;20220107 16:00;20220107 17:00;290.2;300.3;275.1;211.6;181.1;260.1
CO;uur;�g/m�;20220107 17:00;20220107 18:00;301;329.5;277.1;215.3;196.8;269.4
CO;uur;�g/m�;20220107 18:00;20220107 19:00;323.4;340.4;322.3;203;184.7;285.3
CO;uur;�g/m�;20220107 19:00;20220107 20:00;264;281.3;317.6;180.5;185.9;304.4
CO;uur;�g/m�;20220107 20:00;20220107 21:00;268.5;239.8;287.9;179.9;202;289.5
CO;uur;�g/m�;20220107 21:00;20220107 22:00;445.8;524.7;312;181.9;183.6;295.9
CO;uur;�g/m�;20220107 22:00;20220107 23:00;322.5;428.1;338.3;181.7;194.3;276.3
CO;uur;�g/m�;20220107 23:00;20220108 00:00;288.6;273.1;267.8;179.9;178.2;253.1
CO;uur;�g/m�;20220108 00:00;20220108 01:00;293.7;285.4;288.5;176.8;175.9;316.9
CO;uur;�g/m�;20220108 01:00;20220108 02:00;308;339.6;286;178.3;176.2;285.2
CO;uur;�g/m�;20220108 02:00;20220108 03:00;280.6;294.4;277.8;176;168.9;232.6
CO;uur;�g/m�;20220108 03:00;20220108 04:00;217.6;210.3;238.5;176.7;175.3;221.3
CO;uur;�g/m�;20220108 04:00;20220108 05:00;216.3;203.5;234.8;181.9;186.9;225.5
CO;uur;�g/m�;20220108 05:00;20220108 06:00;228.7;213.8;229;178.9;182.5;257.3
CO;uur;�g/m�;20220108 06:00;20220108 07:00;260.9;247.2;260.6;184.9;196.5;301.7
CO;uur;�g/m�;20220108 07:00;20220108 08:00;280.1;298.2;319.5;185.7;192.3;315.6
CO;uur;�g/m�;20220108 08:00;20220108 09:00;334.6;351.8;336.1;192.4;186.7;361.4
CO;uur;�g/m�;20220108 09:00;20220108 10:00;360.2;297.9;300;189;191.5;377.7
CO;uur;�g/m�;20220108 10:00;20220108 11:00;326.5;304.4;286.7;231.7;571.8;416.2
CO;uur;�g/m�;20220108 11:00;20220108 12:00;373.1;354.9;346.2;247.7;460.4;428.2
CO;uur;�g/m�;20220108 12:00;20220108 13:00;458.8;417;371.7;257.9;372.9;462.6
CO;uur;�g/m�;20220108 13:00;20220108 14:00;386.5;336.3;306.3;260.6;322.2;365.5
CO;uur;�g/m�;20220108 14:00;20220108 15:00;335.9;311.1;280.6;232.2;291.2;329.6
CO;uur;�g/m�;20220108 15:00;20220108 16:00;348.4;327.4;277.9;237;278.1;303.8
CO;uur;�g/m�;20220108 16:00;20220108 17:00;341.7;341.9;286.3;245.8;264.7;288.4
CO;uur;�g/m�;20220108 17:00;20220108 18:00;325.3;313.2;290.9;246.8;291;344.3
CO;uur;�g/m�;20220108 18:00;20220108 19:00;319.8;305.8;298.6;251.1;288.6;301.8
CO;uur;�g/m�;20220108 19:00;20220108 20:00;315.1;327.2;304.5;229.7;1150.5;324
CO;uur;�g/m�;20220108 20:00;20220108 21:00;;312.9;309;223.5;1285.8;318.2
CO;uur;�g/m�;20220108 21:00;20220108 22:00;;340.1;289.7;219.3;1115.6;361.8
CO;uur;�g/m�;20220108 22:00;20220108 23:00;;328.1;268.8;192.6;274;314.8
CO;uur;�g/m�;20220108 23:00;20220109 00:00;;332.5;297;172.2;143;290
CO;uur;�g/m�;20220109 00:00;20220109 01:00;;236.5;273.7;178.3;142.1;247.6
CO;uur;�g/m�;20220109 01:00;20220109 02:00;;221.9;263;176.9;146.7;237.1
CO;uur;�g/m�;20220109 02:00;20220109 03:00;;207.3;341.1;181.7;148.1;236.4
CO;uur;�g/m�;20220109 03:00;20220109 04:00;;229.1;237.5;186.9;147.4;237.2
CO;uur;�g/m�;20220109 04:00;20220109 05:00;;298;236.4;187.4;152.8;241.5
CO;uur;�g/m�;20220109 05:00;20220109 06:00;;220.2;245.3;197.9;161.2;245.9
CO;uur;�g/m�;20220109 06:00;20220109 07:00;;224.7;244.1;191.1;155.5;248
CO;uur;�g/m�;20220109 07:00;20220109 08:00;;227.4;246.7;196.9;163;244.3
CO;uur;�g/m�;20220109 08:00;20220109 09:00;;229.5;247.6;194.1;160.3;247
CO;uur;�g/m�;20220109 09:00;20220109 10:00;;240.2;273.7;193.6;160.8;242.4
CO;uur;�g/m�;20220109 10:00;20220109 11:00;;247.8;272.9;204.2;161;242.6
CO;uur;�g/m�;20220109 11:00;20220109 12:00;;242.3;287.6;208;169.5;286.8
CO;uur;�g/m�;20220109 12:00;20220109 13:00;;261;277.1;200;171.7;270.9
CO;uur;�g/m�;20220109 13:00;20220109 14:00;;268.2;305.7;213.3;171.8;261.8
CO;uur;�g/m�;20220109 14:00;20220109 15:00;;250;271.2;207.2;168.1;258.8
CO;uur;�g/m�;20220109 15:00;20220109 16:00;;258.7;296.4;215.4;171.1;265.7
CO;uur;�g/m�;20220109 16:00;20220109 17:00;;283.1;316.1;217.3;180.2;302.9
CO;uur;�g/m�;20220109 17:00;20220109 18:00;;396.6;311.6;211.8;213.5;388.3
CO;uur;�g/m�;20220109 18:00;20220109 19:00;;442.9;341.4;210.3;200.2;332.3
CO;uur;�g/m�;20220109 19:00;20220109 20:00;;592;352.5;213;227.6;482.8
CO;uur;�g/m�;20220109 20:00;20220109 21:00;;518.9;388.8;197.5;216.2;548.2
CO;uur;�g/m�;20220109 21:00;20220109 22:00;;609.6;448.7;196.1;200.3;628
CO;uur;�g/m�;20220109 22:00;20220109 23:00;;754.9;456;200;191.2;667.3
CO;uur;�g/m�;20220109 23:00;20220110 00:00;;657.9;494.8;266.6;187;550.7
CO;uur;�g/m�;20220110 00:00;20220110 01:00;;625.3;465.5;230.4;188.2;534.8
CO;uur;�g/m�;20220110 01:00;20220110 02:00;;540;426.2;329.6;295.2;502.9
CO;uur;�g/m�;20220110 02:00;20220110 03:00;;441.2;409.1;395.6;401.3;491.8
CO;uur;�g/m�;20220110 03:00;20220110 04:00;;440.7;377.3;338.4;496.9;469.4
CO;uur;�g/m�;20220110 04:00;20220110 05:00;;403.6;365.2;298.5;597.5;431.1
CO;uur;�g/m�;20220110 05:00;20220110 06:00;;413;344.8;308.3;384.2;436.8
CO;uur;�g/m�;20220110 06:00;20220110 07:00;;505;352.9;340.8;369;457.3
CO;uur;�g/m�;20220110 07:00;20220110 08:00;;567.5;396.7;418.9;384.5;541.7
CO;uur;�g/m�;20220110 08:00;20220110 09:00;;868.8;455.1;513.2;579.1;552.4
CO;uur;�g/m�;20220110 09:00;20220110 10:00;;799.1;507.9;461.7;598;622.9
CO;uur;�g/m�;20220110 10:00;20220110 11:00;;714.2;508.7;460.2;537.7;575.5
CO;uur;�g/m�;20220110 11:00;20220110 12:00;678.6;704.4;556;492.6;691.9;598
CO;uur;�g/m�;20220110 12:00;20220110 13:00;687.8;701.6;670.2;623.7;676.8;603.3
CO;uur;�g/m�;20220110 13:00;20220110 14:00;685.6;662.9;542.7;489.9;656.2;595.5
CO;uur;�g/m�;20220110 14:00;20220110 15:00;656.6;767.3;518.5;422.3;398.1;598.2
CO;uur;�g/m�;20220110 15:00;20220110 16:00;685.1;752.1;539.6;468;516.6;552.4
CO;uur;�g/m�;20220110 16:00;20220110 17:00;798;795.2;620.9;515.4;623.8;598.7
CO;uur;�g/m�;20220110 17:00;20220110 18:00;811.5;719.8;579.8;621.2;676.1;602
CO;uur;�g/m�;20220110 18:00;20220110 19:00;611.6;642.7;549.8;622.9;649.3;543.7
CO;uur;�g/m�;20220110 19:00;20220110 20:00;535;641.3;483;607.1;651.2;536.5
CO;uur;�g/m�;20220110 20:00;20220110 21:00;434.3;539.7;468.2;574.1;563.3;475.9
CO;uur;�g/m�;20220110 21:00;20220110 22:00;423.3;546.5;448.3;545.1;647.7;487.7
CO;uur;�g/m�;20220110 22:00;20220110 23:00;346.9;486.9;400.7;481.5;590;392.9
CO;uur;�g/m�;20220110 23:00;20220111 00:00;266.9;405;367.5;371.1;557.5;365.5
CO;uur;�g/m�;20220111 00:00;20220111 01:00;230.8;342.4;348.2;329.8;359.8;338.9
CO;uur;�g/m�;20220111 01:00;20220111 02:00;219.5;312.1;331.4;299.6;348.8;341
CO;uur;�g/m�;20220111 02:00;20220111 03:00;193.8;301.4;321.7;289.9;351.5;329.2
CO;uur;�g/m�;20220111 03:00;20220111 04:00;180.7;300.4;320.6;294.2;320.9;303.1
CO;uur;�g/m�;20220111 04:00;20220111 05:00;163.7;299.2;304.7;286.3;314.8;296.1
CO;uur;�g/m�;20220111 05:00;20220111 06:00;168.3;291.9;292.7;278.7;330.2;290
CO;uur;�g/m�;20220111 06:00;20220111 07:00;219.1;313.9;297.1;276.9;396.2;289.5
CO;uur;�g/m�;20220111 07:00;20220111 08:00;273.2;344;298.7;282.9;365.2;315.9
CO;uur;�g/m�;20220111 08:00;20220111 09:00;351.4;416.1;303.2;304.2;346.9;311.5
CO;uur;�g/m�;20220111 09:00;20220111 10:00;275.7;401.2;311.2;313.6;316.4;306.1
CO;uur;�g/m�;20220111 10:00;20220111 11:00;264;381.5;313.6;335.4;325.2;389.3
CO;uur;�g/m�;20220111 11:00;20220111 12:00;263.6;384.9;316.1;323.8;870.6;368.3
CO;uur;�g/m�;20220111 12:00;20220111 13:00;239.1;378.3;317.8;347.5;975.9;380
CO;uur;�g/m�;20220111 13:00;20220111 14:00;263.1;439.2;341.7;345.2;684.5;386.5
CO;uur;�g/m�;20220111 14:00;20220111 15:00;332.5;422.8;358.4;336;674.1;387.2
CO;uur;�g/m�;20220111 15:00;20220111 16:00;352.5;508.3;372.7;343.1;319.2;430.8
CO;uur;�g/m�;20220111 16:00;20220111 17:00;468.9;561.7;400.1;384.7;301.1;444.3
CO;uur;�g/m�;20220111 17:00;20220111 18:00;478.5;594.2;449.6;333.6;304.5;488.1
CO;uur;�g/m�;20220111 18:00;20220111 19:00;390.4;553.8;417.3;355.6;398.9;442
CO;uur;�g/m�;20220111 19:00;20220111 20:00;337.1;505.2;443.1;392.9;399.6;468.6
CO;uur;�g/m�;20220111 20:00;20220111 21:00;347.9;571.4;467.7;351.3;249.6;487.7
CO;uur;�g/m�;20220111 21:00;20220111 22:00;379.4;595.9;463.6;269.4;230.2;470.8
CO;uur;�g/m�;20220111 22:00;20220111 23:00;303.6;486.1;438.2;268.4;250.1;427
CO;uur;�g/m�;20220111 23:00;20220112 00:00;263.2;467.3;399.6;275.5;251;376.9
CO;uur;�g/m�;20220112 00:00;20220112 01:00;227.5;400.1;360.3;251.1;249.5;364.3
CO;uur;�g/m�;20220112 01:00;20220112 02:00;228.6;413.3;365.9;254;268.3;359.7
CO;uur;�g/m�;20220112 02:00;20220112 03:00;207.2;367;359.8;270.6;265.5;358.2
CO;uur;�g/m�;20220112 03:00;20220112 04:00;209;373.7;374.5;226.6;185.1;382.3
CO;uur;�g/m�;20220112 04:00;20220112 05:00;227.1;412.2;372.5;192;154.2;375.5
CO;uur;�g/m�;20220112 05:00;20220112 06:00;305.1;505.7;380;220.6;149.1;372.2
CO;uur;�g/m�;20220112 06:00;20220112 07:00;424.8;733.6;410.1;343.8;158.2;453.6
CO;uur;�g/m�;20220112 07:00;20220112 08:00;569.9;794.6;459.1;418;278;616.8
CO;uur;�g/m�;20220112 08:00;20220112 09:00;786.1;791.7;496.8;606.3;558.8;576.6
CO;uur;�g/m�;20220112 09:00;20220112 10:00;931;850.7;440.2;431.6;606.4;737.3
CO;uur;�g/m�;20220112 10:00;20220112 11:00;824.8;898.4;516.3;462.7;409.3;761.8
CO;uur;�g/m�;20220112 11:00;20220112 12:00;602.5;658;426.2;271.9;212.7;862.7
CO;uur;�g/m�;20220112 12:00;20220112 13:00;669.5;695.4;482.2;258.5;196.5;617.2
CO;uur;�g/m�;20220112 13:00;20220112 14:00;506.6;609;404.2;300.5;229.2;552.2
CO;uur;�g/m�;20220112 14:00;20220112 15:00;526.7;656.5;358;293.9;221.4;448
CO;uur;�g/m�;20220112 15:00;20220112 16:00;517.1;666.7;341.2;492;415.6;444.5
CO;uur;�g/m�;20220112 16:00;20220112 17:00;432.4;566.3;347.3;517.6;544.5;447.3
CO;uur;�g/m�;20220112 17:00;20220112 18:00;512.6;624.4;401;381.4;372.9;536.4
CO;uur;�g/m�;20220112 18:00;20220112 19:00;394.2;677.7;437;294.5;287.1;534.5
CO;uur;�g/m�;20220112 19:00;20220112 20:00;402.9;587.5;442.4;267.8;250.8;474.3
CO;uur;�g/m�;20220112 20:00;20220112 21:00;356.7;557.1;424.8;275.6;275;481.5
CO;uur;�g/m�;20220112 21:00;20220112 22:00;354.9;503;397.6;252.7;252.8;478.9